DEIMOS-1

Last updated on Wed Sep 17 2025 00:02:30 GMT+0000 (Coordinated Universal Time)

1 35681U 09041A 25259.60138328 .00000625 00000+0 10047-3 0 9998 2 35681 97.7107 64.2982 0001834 45.2693 314.8666 14.74735776866557
UTC large
Height (km)
Speed (km/s)
/
Latitude / Longitude
Inclination (degrees)
Orbital Period (minutes)
Azimuth
Elevation
Range (km)
Doppler Factor

Next 0 passes for location: London (51.5072 / 0.1276)

Sorry there are no passes over London.